Location: *
(41.7492°S, 135.4150°W)
Time: 05:00:17
(UTC+00:00)

TIGRISAT - Pass Details

Date: 08 July 2022
Orbit: 603 x 686 km, 97.7° (Epoch: 08 August)

Event Time Altitude Azimuth Distance (km) Brightness Sun altitude
Rises 02:10:58 0° 26° (NNE) 2,982 ? -5.1°
Reaches altitude 10° 02:13:11 10° 30° (NNE) 2,091 ? -5.5°
Maximum altitude 02:17:39 54° 107° (ESE) 828 ? -6.2°
Drops below altitude 10° 02:22:16 10° 183° (S) 2,158 ? -7.0°
Sets 02:24:35 0° 187° (S) 3,088 ? -7.4°
